Regional Weather Roundup
Issued by NWS Glasgow, MT

Home | Current Version | Previous Version | Text Only | Print | Product List | Glossary On
Versions: 1 2 3 4 5 6 7 8 9 10 11 12 13 14 15 16 17 18 19 20 21 22 23 24 25 26 27 28 29 30 31 32 33 34 35 36 37 38 39 40 41 42 43 44 45 46 47 48 49 50
000
ASUS45 KGGW 220215
RWRGGW
HOURLY REGIONAL WEATHER ROUNDUP FOR NORTHEAST MONTANA
NATIONAL WEATHER SERVICE GLASGOW MONTANA
800 PM MDT MON AUG 21 2017

NOTE: "FAIR" INDICATES FEW OR NO CLOUDS BELOW 12,000 FEET WITH NO
SIGNIFICANT WEATHER AND/OR OBSTRUCTIONS TO VISISBILITY.

NORTHEAST MONTANA


CITY           SKY/WX    TMP DP  RH WIND       PRES   REMARKS
GLASGOW        CLEAR     69  35  28 NW5       30.13S
PLENTYWOOD       N/A     66  30  26 N12G20      N/A
WOLF POINT     CLEAR     71  33  24 N7        30.12S
JORDAN           N/A     70  34  26 NE7       30.14S
WINNETT          N/A     73  32  22 NE3         N/A
SIDNEY         CLEAR     66  37  34 N8        30.12S
GLENDIVE       CLEAR     67  36  31 N8        30.15R
MALTA            N/A     70  41  34 SE2         N/A
SCOBEY           N/A     65  30  27 CALM      30.13S

FORT PECK REPORTS


CITY           SKY/WX    TMP DP  RH WIND       PRES   REMARKS
FORT PECK        N/A     70  37  29 NW12        N/A
THE PINES        N/A     70  34  26 N3          N/A

SOUTHEAST MONTANA


CITY           SKY/WX    TMP DP  RH WIND       PRES   REMARKS
BILLINGS       PTCLDY    74  35  24 E8        30.15S
MILES CITY     CLEAR     73  32  22 N8        30.14R
BAKER          CLEAR     67  36  31 N7        30.16S
LIVINGSTON     CLOUDY    70  37  29 CALM      30.16S

CENTRAL MONTANA


CITY           SKY/WX    TMP DP  RH WIND       PRES   REMARKS
HAVRE          PTCLDY    72  37  28 E7        30.13S
LEWISTOWN      CLOUDY    71  35  26 E5        30.19R
GREAT FALLS    CLOUDY    73  35  25 E8        30.14S
CUT BANK       MOCLDY    72  34  24 SE6       30.15S
HELENA         CLEAR     80  34  19 CALM      30.13R
BUTTE          CLEAR     73  36  25 W8        30.22S
BOZEMAN        CLEAR     72  35  25 S6        30.17S

WESTERN MONTANA


CITY           SKY/WX    TMP DP  RH WIND       PRES   REMARKS
MISSOULA       CLEAR     78  38  23 N14       30.10S
KALISPELL      NOT AVBL

NORTH DAKOTA


CITY           SKY/WX    TMP DP  RH WIND       PRES   REMARKS
WILLISTON      CLEAR     59  37  44 NW8       30.12R
DICKINSON      CLEAR     64  37  36 N8        30.12R
MINOT          CLEAR     63  40  42 W9        30.06R
BISMARCK       CLEAR     67  43  41 NW7       30.07R

SOUTHERN SASKATCHEWAN


CITY           SKY/WX    TMP DP  RH WIND       PRES   REMARKS
REGINA         MOCLDY    61  37  41 NW6       30.10S
ESTEVAN        PTCLDY    55  37  50 NW8       30.10R
SWIFT CURRENT  CLEAR     63  36  36 N3        30.15R




USA.gov is the U.S. government's official web portal to all federal, state and local government web resources and services.